CW2597 Weather Reports


Display with metric or nautical units.
time (UTC)temp
F
wind
direction
speed
MPH
gust
MPH
rain 1hr
in
rain 24hr
in
rain mn
in
humidity
%
barometer
mb
20260903130704 72 232 1.0 12.0 0.00 0.05 0.05 77 1013.2
20260903130510 72 230 4.0 13.0 0.00 0.05 0.05 76 1012.3
20260903130205 72 234 4.0 13.0 0.00 0.05 0.05 77 1013.3
20260903125705 72 211 2.0 12.0 0.00 0.05 0.05 77 1013.3
20260903125510 72 247 3.0 12.0 0.00 0.05 0.05 79 1012.4
20260903125204 72 229 0.0 2.0 0.00 0.05 0.05 80 1013.3
20260903124704 71 239 2.0 10.0 0.00 0.05 0.05 79 1013.3
20260903124204 71 235 2.0 12.0 0.00 0.05 0.05 80 1013.3
20260903123705 72 257 1.0 12.0 0.00 0.05 0.05 82 1013.3
20260903123510 71 248 2.0 12.0 0.00 0.05 0.05 82 1012.4
20260903123205 71 228 1.0 9.0 0.00 0.05 0.05 84 1013.3
20260903122704 70 223 1.0 9.0 0.01 0.05 0.05 85 1013.3
20260903122510 70 222 1.0 10.0 0.01 0.05 0.05 85 1012.4
20260903122204 70 225 2.0 12.0 0.02 0.05 0.05 85 1013.3
20260903121704 69 250 1.0 9.0 0.02 0.05 0.05 89 1013.5
20260903121510 69 252 0.0 7.0 0.02 0.05 0.05 88 1012.5
20260903121205 69 244 1.0 10.0 0.02 0.05 0.05 88 1013.5
20260903120705 69 247 0.0 8.0 0.04 0.05 0.05 89 1013.4
20260903120510 69 238 1.0 4.0 0.04 0.05 0.05 90 1012.5
20260903120204 68 220 1.0 8.0 0.04 0.05 0.05 91 1013.4
20260903115704 68 221 2.0 8.0 0.05 0.05 0.05 91 1013.3
20260903115510 66 202 0.0 5.0 0.05 0.05 0.05 91 1012.4
20260903115204 67 232 1.0 5.0 0.05 0.05 0.05 92 1013.3
20260903114704 66 184 0.0 5.0 0.05 0.05 0.05 92 1013.2
20260903114204 66 206 0.0 3.0 0.05 0.05 0.05 91 1013.4
20260903113704 66 194 0.0 1.0 0.05 0.05 0.05 91 1013.4
20260903113511 66 200 0.0 1.0 0.05 0.05 0.05 91 1012.5
20260903113204 66 204 0.0 1.0 0.05 0.05 0.05 90 1013.4
20260903112704 66 199 0.0 0.0 0.04 0.04 0.04 90 1013.5
20260903112510 66 179 0.0 0.0 0.04 0.04 0.04 91 1012.6
20260903111704 65 199 0.0 0.0 0.03 0.03 0.03 90 1013.7
20260903111511 65 199 0.0 1.0 0.03 0.03 0.03 89 1012.8
20260903110510 66 194 0.0 6.0 0.01 0.01 0.01 88 1012.7
20260903110204 66 227 1.0 12.0 0.01 0.01 0.01 87 1013.6
20260903105705 66 233 1.0 9.0 0.00 0.00 0.00 87 1013.6
20260903105511 66 232 1.0 8.0 0.00 0.00 0.00 87 1012.7
20260903105204 66 209 1.0 12.0 0.00 0.00 0.00 86 1013.5
20260903104704 66 210 1.0 6.0 0.00 0.00 0.00 85 1013.6
20260903104205 66 226 0.0 3.0 0.00 0.00 0.00 85 1013.5
20260903103704 66 217 1.0 8.0 0.00 0.00 0.00 85 1013.6
20260903103510 67 195 1.0 8.0 0.00 0.00 0.00 84 1012.6
20260903103205 67 221 2.0 10.0 0.00 0.00 0.00 83 1013.5
20260903102704 67 202 1.0 9.0 0.00 0.00 0.00 82 1013.5
20260903102510 67 207 0.0 9.0 0.00 0.00 0.00 81 1012.6
20260903101704 67 230 1.0 8.0 0.00 0.00 0.00 82 1013.4
20260903101510 67 268 1.0 8.0 0.00 0.00 0.00 82 1012.5
20260903100704 67 227 1.0 6.0 0.00 0.00 0.00 83 1013.4
20260903100204 67 211 0.0 3.0 0.00 0.00 0.00 83 1013.4
20260903095705 66 248 0.0 3.0 0.00 0.00 0.00 84 1013.5
20260903095512 66 193 0.0 4.0 0.00 0.00 0.00 85 1012.5
20260903094704 66 230 1.0 8.0 0.00 0.00 0.00 85 1013.7
20260903094511 66 256 0.0 5.0 0.00 0.00 0.00 85 1012.9
20260903094204 66 212 0.0 10.0 0.00 0.00 0.00 85 1013.7
20260903093704 66 206 3.0 10.0 0.00 0.00 0.00 84 1013.5
20260903093205 66 226 0.0 3.0 0.00 0.00 0.00 84 1013.5
20260903092512 66 202 0.0 7.0 0.00 0.00 0.00 85 1012.6
20260903092204 65 222 0.0 0.0 0.00 0.00 0.00 85 1013.5
20260903091511 65 204 0.0 2.0 0.00 0.00 0.00 85 1012.6
20260903091204 65 220 0.0 2.0 0.00 0.00 0.00 85 1013.6
20260903090704 66 189 0.0 6.0 0.00 0.00 0.00 84 1013.7
20260903090512 66 223 1.0 7.0 0.00 0.00 0.00 84 1012.8
20260903090204 66 212 1.0 7.0 0.00 0.00 0.00 84 1013.7
20260903085512 65 252 2.0 10.0 0.00 0.00 0.00 83 1012.8
20260903085204 66 209 1.0 7.0 0.00 0.00 0.00 83 1013.9
20260903084512 66 208 1.0 10.0 0.00 0.00 0.00 82 1012.9
20260903084205 66 216 3.0 10.0 0.00 0.00 0.00 81 1013.8
20260903083511 66 242 2.0 10.0 0.00 0.00 0.00 79 1012.9
20260903082705 66 224 0.0 10.0 0.00 0.00 0.00 80 1013.7
20260903082512 66 238 1.0 10.0 0.00 0.00 0.00 80 1012.8
20260903082204 66 231 1.0 9.0 0.00 0.00 0.00 80 1013.7
20260903081706 66 234 1.0 9.0 0.00 0.00 0.00 80 1013.7
20260903081204 66 209 0.0 9.0 0.00 0.00 0.00 80 1013.7
20260903080704 66 222 1.0 9.0 0.00 0.00 0.00 80 1013.7
20260903080512 66 219 1.0 7.0 0.00 0.00 0.00 80 1012.8
20260903080204 66 218 2.0 7.0 0.00 0.00 0.00 80 1013.6
20260903075704 66 237 1.0 7.0 0.00 0.00 0.00 80 1013.7
20260903075511 66 193 1.0 7.0 0.00 0.00 0.00 80 1012.7
20260903075204 66 204 1.0 5.0 0.00 0.00 0.00 80 1013.6
20260903074704 66 212 0.0 6.0 0.00 0.00 0.00 81 1013.7
20260903074512 65 226 0.0 6.0 0.00 0.00 0.00 80 1012.7
20260903074204 65 217 0.0 3.0 0.00 0.00 0.00 81 1013.6
20260903073705 65 200 0.0 1.0 0.00 0.00 0.00 81 1013.6
20260903073511 65 175 0.0 3.0 0.00 0.00 0.00 81 1012.8
20260903073204 65 205 1.0 7.0 0.00 0.00 0.00 81 1013.7
20260903072704 65 224 3.0 10.0 0.00 0.00 0.00 81 1013.7
20260903072512 65 163 2.0 10.0 0.00 0.00 0.00 81 1012.8
20260903072204 65 215 0.0 7.0 0.00 0.00 0.00 82 1013.7
20260903071705 65 217 2.0 8.0 0.00 0.00 0.00 82 1013.6
20260903071511 65 214 1.0 8.0 0.00 0.00 0.00 82 1012.6
20260903071204 64 193 2.0 12.0 0.00 0.00 0.00 83 1013.6
20260903070705 64 199 0.0 3.0 0.00 0.00 0.00 83 1013.7
20260903070512 64 227 1.0 6.0 0.00 0.00 0.00 83 1012.8
20260903070204 64 226 1.0 6.0 0.00 0.00 0.00 83 1013.8
20260903065704 64 214 1.0 8.0 0.00 0.00 0.00 83 1014.0
20260903065511 64 252 1.0 8.0 0.00 0.00 0.00 83 1013.1
20260903065204 64 211 2.0 8.0 0.00 0.00 0.00 82 1014.2
20260903064704 64 220 1.0 6.0 0.00 0.00 0.00 82 1014.2
20260903064511 65 219 0.0 5.0 0.00 0.00 0.00 82 1013.2
20260903064204 64 196 1.0 6.0 0.00 0.00 0.00 82 1014.1
20260903063704 64 215 2.0 12.0 0.00 0.00 0.00 82 1014.1
20260903063511 65 220 2.0 12.0 0.00 0.00 0.00 82 1013.2
20260903062704 64 208 0.0 5.0 0.00 0.00 0.00 82 1014.3
20260903062512 64 231 0.0 5.0 0.00 0.00 0.00 82 1013.4
20260903062204 64 211 0.0 5.0 0.00 0.00 0.00 82 1014.3
20260903061704 64 205 0.0 2.0 0.00 0.00 0.00 82 1014.3
20260903061512 64 250 0.0 1.0 0.00 0.00 0.00 81 1013.4
20260903061204 64 229 0.0 7.0 0.00 0.00 0.00 81 1014.3
20260903060704 64 219 0.0 6.0 0.00 0.00 0.00 81 1014.4
20260903060511 64 237 0.0 6.0 0.00 0.00 0.00 81 1013.5
20260903060204 64 233 0.0 2.0 0.00 0.00 0.00 81 1014.4
20260903055703 64 209 0.0 1.0 0.00 0.00 0.00 81 1014.3
20260903054703 64 201 1.0 12.0 0.00 0.00 0.00 81 1014.3
20260903054511 64 219 0.0 4.0 0.00 0.00 0.00 81 1013.4
20260903054204 64 203 0.0 3.0 0.00 0.00 0.00 81 1014.0
20260903053704 64 212 1.0 7.0 0.00 0.00 0.00 81 1014.0
20260903053511 64 224 0.0 6.0 0.00 0.00 0.00 81 1013.2
20260903053204 64 193 0.0 5.0 0.00 0.00 0.00 82 1014.2
20260903052511 63 231 0.0 6.0 0.00 0.00 0.00 82 1013.1
20260903051705 63 199 0.0 8.0 0.00 0.00 0.00 82 1014.0
20260903051511 63 194 0.0 8.0 0.00 0.00 0.00 82 1013.2
20260903051205 63 197 0.0 3.0 0.00 0.00 0.00 82 1014.1
20260903050706 63 204 1.0 5.0 0.00 0.00 0.00 82 1014.3
20260903050512 63 177 0.0 4.0 0.00 0.00 0.00 83 1013.4
20260903050206 63 214 0.0 5.0 0.00 0.00 0.00 83 1014.3
20260903045706 63 190 2.0 7.0 0.00 0.00 0.00 83 1014.2
20260903045511 63 167 0.0 6.0 0.00 0.00 0.00 83 1013.2
20260903045206 63 190 0.0 3.0 0.00 0.00 0.00 83 1014.2
20260903044706 63 178 0.0 3.0 0.00 0.00 0.00 83 1014.3
20260903044511 63 194 0.0 2.0 0.00 0.00 0.00 83 1013.3
20260903043706 63 177 1.0 7.0 0.00 0.00 0.00 83 1014.5
20260903043512 63 194 0.0 6.0 0.00 0.00 0.00 83 1013.5
20260903043206 63 194 1.0 6.0 0.00 0.00 0.00 83 1014.5
20260903042706 63 198 0.0 3.0 0.00 0.00 0.00 84 1014.7
20260903042512 63 172 0.0 1.0 0.00 0.00 0.00 84 1013.8
20260903042206 63 211 0.0 1.0 0.00 0.00 0.00 84 1014.9
20260903041706 63 210 1.0 6.0 0.00 0.00 0.00 84 1014.7
20260903041512 63 181 0.0 6.0 0.00 0.00 0.00 83 1013.8
20260903041206 63 196 0.0 3.0 0.00 0.00 0.00 83 1014.8
20260903040706 63 194 1.0 9.0 0.00 0.00 0.00 83 1014.7
20260903040512 63 230 0.0 0.0 0.00 0.00 0.00 83 1013.8
20260903040206 63 195 1.0 6.0 0.00 0.00 0.00 83 1014.9
20260903035512 63 230 0.0 8.0 0.00 0.00 0.00 83 1014.0
20260903035206 63 220 0.0 3.0 0.00 0.00 0.00 83 1015.0
20260903034706 63 204 0.0 0.0 0.00 0.00 0.00 83 1015.1
20260903034511 63 210 0.0 5.0 0.00 0.00 0.00 83 1014.1
20260903034206 63 184 0.0 6.0 0.00 0.00 0.00 83 1015.1
20260903033206 63 211 1.0 6.0 0.00 0.00 0.00 83 1015.1
20260903032706 63 204 0.0 1.0 0.00 0.00 0.00 83 1015.2
20260903032511 63 202 0.0 1.0 0.00 0.00 0.00 83 1014.3
20260903032205 63 201 0.0 1.0 0.00 0.00 0.00 83 1015.4
20260903031706 63 208 0.0 0.0 0.00 0.00 0.00 83 1015.5
20260903031512 63 217 0.0 1.0 0.00 0.00 0.00 83 1014.6
20260903031206 63 205 0.0 3.0 0.00 0.00 0.00 83 1015.5
20260903030706 63 216 0.0 8.0 0.00 0.00 0.00 82 1015.5
20260903025511 63 210 0.0 1.0 0.00 0.00 0.00 83 1014.6
20260903025206 63 218 0.0 8.0 0.00 0.00 0.00 82 1015.6
20260903024706 63 195 1.0 9.0 0.00 0.00 0.00 82 1015.4
20260903024206 63 205 0.0 6.0 0.00 0.00 0.00 82 1015.5
20260903023706 63 190 0.0 2.0 0.00 0.00 0.00 82 1015.5
20260903023512 63 222 1.0 8.0 0.00 0.00 0.00 82 1014.7
20260903023206 63 182 1.0 8.0 0.00 0.00 0.00 82 1015.6
20260903022706 63 179 0.0 2.0 0.00 0.00 0.00 82 1015.6
20260903022206 63 215 0.0 6.0 0.00 0.00 0.00 82 1015.7
20260903021511 63 219 1.0 8.0 0.00 0.00 0.00 83 1014.9
20260903021205 63 211 1.0 8.0 0.00 0.00 0.00 83 1015.8
20260903020511 63 179 1.0 6.0 0.00 0.00 0.00 84 1015.0
20260903020206 63 202 1.0 8.0 0.00 0.00 0.00 85 1015.9
20260903015706 62 199 0.0 1.0 0.00 0.00 0.00 85 1015.9
20260903015206 62 214 0.0 1.0 0.00 0.00 0.00 86 1016.0
20260903014705 62 192 0.0 0.0 0.00 0.00 0.00 86 1016.1
20260903014512 62 181 0.0 0.0 0.00 0.00 0.00 86 1015.2
20260903014205 63 170 0.0 0.0 0.00 0.00 0.00 86 1016.2
20260903013706 63 181 0.0 0.0 0.00 0.00 0.00 85 1016.2
20260903013511 63 174 0.0 0.0 0.00 0.00 0.00 85 1015.2
20260903012705 63 182 0.0 0.0 0.00 0.00 0.00 84 1016.3
20260903012512 63 190 0.0 0.0 0.00 0.00 0.00 84 1015.4
20260903012206 63 202 0.0 1.0 0.00 0.00 0.00 84 1016.5
20260903011706 64 220 0.0 3.0 0.00 0.00 0.00 83 1016.7
20260903011511 64 236 0.0 3.0 0.00 0.00 0.00 82 1015.8
20260903011206 64 222 0.0 8.0 0.00 0.00 0.00 82 1016.9
20260903010705 64 209 1.0 8.0 0.00 0.00 0.00 81 1016.8
20260903010511 64 210 0.0 8.0 0.00 0.00 0.00 82 1016.0
20260903005705 64 206 0.0 0.0 0.00 0.00 0.00 81 1016.7
20260903005511 64 213 0.0 0.0 0.00 0.00 0.00 81 1015.8
20260903005205 64 196 0.0 0.0 0.00 0.00 0.00 81 1016.6
20260903004705 64 204 0.0 0.0 0.00 0.00 0.00 81 1016.5
20260903004511 64 207 0.0 2.0 0.00 0.00 0.00 81 1015.5
20260903004205 64 173 0.0 2.0 0.00 0.00 0.00 81 1016.6
20260903003705 64 188 0.0 0.0 0.00 0.00 0.00 81 1016.8
20260903003205 64 210 0.0 0.0 0.00 0.00 0.00 81 1016.9
20260903002705 64 190 0.0 0.0 0.00 0.00 0.00 80 1016.9
20260903002205 64 197 0.0 0.0 0.00 0.00 0.00 80 1016.9
20260903001705 64 196 0.0 0.0 0.00 0.00 0.00 80 1016.9
20260903001511 64 205 0.0 0.0 0.00 0.00 0.00 80 1016.0
20260903000705 64 201 0.0 1.0 0.00 0.00 0.00 80 1016.9
20260902235705 64 232 0.0 1.0 0.00 0.00 0.00 81 1017.0
20260902235511 64 196 0.0 1.0 0.00 0.00 0.00 81 1016.2
20260902235205 64 189 0.0 0.0 0.00 0.00 0.00 81 1017.1
20260902234511 64 136 0.0 0.0 0.00 0.00 0.00 81 1016.2
20260902234205 64 196 0.0 0.0 0.00 0.00 0.00 81 1017.2
20260902233511 64 192 0.0 1.0 0.00 0.00 0.00 81 1016.2
20260902233206 64 204 0.0 0.0 0.00 0.00 0.00 81 1017.2
20260902232705 64 179 0.0 0.0 0.00 0.00 0.00 82 1017.3
20260902232511 64 171 0.0 0.0 0.00 0.00 0.00 82 1016.4
20260902232205 64 168 0.0 0.0 0.00 0.00 0.00 82 1017.3
20260902231705 64 188 0.0 0.0 0.00 0.00 0.00 82 1017.4
20260902231511 64 209 0.0 0.0 0.00 0.00 0.00 82 1016.5
20260902231205 64 173 0.0 0.0 0.00 0.00 0.00 82 1017.6
20260902230705 64 190 0.0 0.0 0.00 0.00 0.00 82 1017.6
20260902230511 64 197 0.0 0.0 0.00 0.00 0.00 82 1016.7
20260902225706 64 199 0.0 0.0 0.00 0.00 0.00 82 1017.6
20260902225511 63 198 0.0 0.0 0.00 0.00 0.00 82 1016.7
20260902225206 64 191 0.0 0.0 0.00 0.00 0.00 82 1017.7
20260902224706 64 185 0.0 1.0 0.00 0.00 0.00 82 1017.7
20260902224511 64 196 0.0 1.0 0.00 0.00 0.00 82 1016.8
20260902224206 64 186 0.0 0.0 0.00 0.00 0.00 82 1017.7
20260902223706 64 180 0.0 0.0 0.00 0.00 0.00 82 1017.8
20260902223206 63 203 0.0 0.0 0.00 0.00 0.00 82 1017.8
20260902222511 63 185 0.0 2.0 0.00 0.00 0.00 82 1016.9
20260902222206 63 178 0.0 0.0 0.00 0.00 0.00 82 1017.9
20260902221705 63 178 0.0 0.0 0.00 0.00 0.00 81 1017.9
20260902221511 63 194 0.0 0.0 0.00 0.00 0.00 81 1017.0
20260902221205 63 176 0.0 0.0 0.00 0.00 0.00 81 1017.9
20260902220706 63 161 0.0 0.0 0.00 0.00 0.00 81 1017.9
20260902220205 63 189 0.0 0.0 0.00 0.00 0.00 81 1017.9
20260902215705 63 186 0.0 0.0 0.00 0.00 0.00 81 1017.8
20260902215511 63 177 0.0 0.0 0.00 0.00 0.00 81 1017.0
20260902214705 63 174 0.0 0.0 0.00 0.00 0.00 81 1017.8
20260902214511 63 178 0.0 0.0 0.00 0.00 0.00 80 1016.9
20260902214206 63 173 0.0 0.0 0.00 0.00 0.00 80 1017.8
20260902213705 63 177 0.0 0.0 0.00 0.00 0.00 80 1017.8
20260902213511 64 171 0.0 0.0 0.00 0.00 0.00 80 1016.9
20260902213206 64 233 0.0 0.0 0.00 0.00 0.00 80 1017.9
20260902212706 64 233 0.0 0.0 0.00 0.00 0.00 80 1018.0
20260902212511 64 233 0.0 0.0 0.00 0.00 0.00 80 1017.1
20260902212205 64 233 0.0 0.0 0.00 0.00 0.00 80 1018.0
20260902211705 64 234 0.0 0.0 0.00 0.00 0.00 79 1018.0
20260902211511 64 234 0.0 0.0 0.00 0.00 0.00 79 1017.1
20260902211205 64 238 0.0 0.0 0.00 0.00 0.00 79 1018.0
20260902210706 64 208 0.0 0.0 0.00 0.00 0.00 79 1018.1
20260902210511 64 227 0.0 1.0 0.00 0.00 0.00 79 1017.3
20260902210205 64 214 0.0 0.0 0.00 0.00 0.00 79 1018.2
20260902205706 64 228 0.0 0.0 0.00 0.00 0.00 79 1018.1
20260902205511 64 224 0.0 0.0 0.00 0.00 0.00 79 1017.3
20260902205205 64 202 0.0 0.0 0.00 0.00 0.00 78 1018.2
20260902204511 64 219 0.0 0.0 0.00 0.00 0.00 78 1017.3
20260902203705 64 212 0.0 0.0 0.00 0.00 0.00 78 1018.2
20260902203512 64 208 0.0 0.0 0.00 0.00 0.00 78 1017.3
20260902203205 64 200 0.0 0.0 0.00 0.00 0.00 78 1018.2
20260902202705 64 202 0.0 0.0 0.00 0.00 0.00 78 1018.1
20260902202205 64 203 0.0 0.0 0.00 0.00 0.00 78 1018.1
20260902201705 64 195 0.0 3.0 0.00 0.00 0.00 78 1018.1
20260902201510 64 202 0.0 3.0 0.00 0.00 0.00 78 1017.1
20260902201205 64 190 0.0 0.0 0.00 0.00 0.00 78 1018.1
20260902200705 64 196 0.0 0.0 0.00 0.00 0.00 78 1018.2
20260902200511 64 195 0.0 1.0 0.00 0.00 0.00 78 1017.3
20260902200205 64 189 0.0 1.0 0.00 0.00 0.00 78 1018.1
20260902195705 64 193 0.0 3.0 0.00 0.00 0.00 78 1018.2
20260902195511 64 183 0.0 1.0 0.00 0.00 0.00 78 1017.3
20260902195205 64 196 0.0 1.0 0.00 0.00 0.00 78 1018.2
20260902194205 64 192 0.0 0.0 0.00 0.00 0.00 78 1018.3
20260902193705 64 195 0.0 0.0 0.00 0.00 0.00 78 1018.2
20260902193511 64 219 0.0 0.0 0.00 0.00 0.00 78 1017.3
20260902193205 64 209 0.0 0.0 0.00 0.00 0.00 78 1018.3
20260902192705 65 215 0.0 0.0 0.00 0.00 0.00 78 1018.3
20260902192511 65 210 0.0 0.0 0.00 0.00 0.00 78 1017.4
20260902192206 65 226 0.0 0.0 0.00 0.00 0.00 78 1018.3
20260902191705 65 215 0.0 0.0 0.00 0.00 0.00 78 1018.3
20260902191510 65 206 0.0 0.0 0.00 0.00 0.00 78 1017.4
20260902190510 65 201 0.0 0.0 0.00 0.00 0.00 77 1017.2
20260902190205 65 180 0.0 0.0 0.00 0.00 0.00 77 1018.1
20260902185705 65 203 0.0 0.0 0.00 0.00 0.00 77 1018.1
20260902185510 65 193 0.0 0.0 0.00 0.00 0.00 77 1017.2
20260902184205 66 194 0.0 0.0 0.00 0.00 0.00 76 1018.1
20260902183705 66 207 0.0 0.0 0.00 0.00 0.00 76 1018.0
20260902183510 66 221 0.0 0.0 0.00 0.00 0.00 77 1017.1
20260902182510 66 198 0.0 0.0 0.00 0.00 0.00 77 1017.1
20260902181205 66 206 0.0 0.0 0.00 0.00 0.00 78 1017.9
20260902180705 66 193 0.0 0.0 0.00 0.00 0.00 78 1017.9
20260902180511 66 194 0.0 0.0 0.00 0.00 0.00 77 1017.0
20260902180205 66 194 0.0 0.0 0.00 0.00 0.00 77 1017.8
20260902175705 66 197 0.0 0.0 0.00 0.00 0.00 77 1017.8
20260902175510 66 197 0.0 0.0 0.00 0.00 0.00 77 1016.9
20260902175205 66 177 0.0 0.0 0.00 0.00 0.00 77 1017.8
20260902174705 66 194 0.0 0.0 0.00 0.00 0.00 77 1017.8
20260902174510 66 225 0.0 0.0 0.00 0.00 0.00 77 1016.9
20260902174205 66 226 0.0 0.0 0.00 0.00 0.00 77 1017.8
20260902173705 67 218 0.0 0.0 0.00 0.00 0.00 77 1017.8
20260902173510 67 239 0.0 0.0 0.00 0.00 0.00 78 1016.9
20260902173205 67 214 0.0 0.0 0.00 0.00 0.00 77 1017.8
20260902172705 67 232 0.0 0.0 0.00 0.00 0.00 77 1017.7
20260902172510 67 229 0.0 0.0 0.00 0.00 0.00 77 1016.8
20260902171204 67 228 0.0 0.0 0.00 0.00 0.00 77 1017.7
20260902170705 67 228 0.0 0.0 0.00 0.00 0.00 77 1017.7
20260902170205 67 228 0.0 0.0 0.00 0.00 0.00 77 1017.8
20260902165705 67 258 0.0 0.0 0.00 0.00 0.00 78 1017.8
20260902165510 67 227 0.0 0.0 0.00 0.00 0.00 78 1016.8
20260902165205 67 216 0.0 0.0 0.00 0.00 0.00 80 1017.8
20260902164704 66 225 0.0 0.0 0.00 0.00 0.00 80 1017.8
20260902164510 66 195 0.0 0.0 0.00 0.00 0.00 80 1016.9
20260902163705 66 182 0.0 0.0 0.00 0.00 0.00 82 1017.9
20260902163510 66 181 0.0 0.0 0.00 0.00 0.00 82 1016.9
20260902162705 65 253 0.0 0.0 0.00 0.00 0.00 82 1018.0
20260902162511 65 253 0.0 0.0 0.00 0.00 0.00 82 1017.0
20260902162204 65 253 0.0 0.0 0.00 0.00 0.00 82 1018.0
20260902161705 65 253 0.0 0.0 0.00 0.00 0.00 82 1018.0
20260902160705 65 253 0.0 0.0 0.00 0.00 0.00 82 1018.1
20260902160510 65 253 0.0 0.0 0.00 0.00 0.00 82 1017.0
20260902160204 65 253 0.0 0.0 0.00 0.00 0.00 82 1018.0
20260902155705 65 253 0.0 0.0 0.00 0.00 0.00 82 1018.1
20260902155510 65 253 0.0 0.0 0.00 0.00 0.00 82 1017.1
20260902154705 65 253 0.0 0.0 0.00 0.00 0.00 81 1018.1
20260902154511 65 281 0.0 0.0 0.00 0.00 0.00 81 1017.1
20260902154204 65 278 0.0 0.0 0.00 0.00 0.00 80 1018.2
20260902153704 65 267 0.0 0.0 0.00 0.00 0.00 80 1018.2
20260902153510 65 286 0.0 0.0 0.00 0.00 0.00 79 1017.2
20260902153205 65 276 0.0 1.0 0.00 0.00 0.00 78 1018.1
20260902152705 66 259 0.0 3.0 0.00 0.00 0.00 78 1018.3
20260902152510 66 274 1.0 8.0 0.00 0.00 0.00 77 1017.3
20260902152205 67 275 2.0 9.0 0.00 0.00 0.00 74 1018.3
20260902151705 68 292 1.0 10.0 0.00 0.00 0.00 70 1018.2
20260902151511 69 286 1.0 8.0 0.00 0.00 0.00 69 1017.2
20260902151204 70 300 2.0 14.0 0.00 0.00 0.00 66 1018.1
20260902150705 72 277 6.0 14.0 0.00 0.00 0.00 58 1018.1
20260902150510 72 235 1.0 9.0 0.00 0.00 0.00 56 1017.0
20260902150205 72 239 0.0 0.0 0.00 0.00 0.00 56 1017.8
20260902145704 73 250 0.0 0.0 0.00 0.00 0.00 56 1017.7
20260902145511 73 231 0.0 3.0 0.00 0.00 0.00 55 1016.8
20260902145204 73 219 0.0 3.0 0.00 0.00 0.00 55 1017.7
20260902144705 73 211 1.0 7.0 0.00 0.00 0.00 53 1017.7
20260902144510 74 227 0.0 7.0 0.00 0.00 0.00 53 1016.8
20260902144204 74 237 0.0 7.0 0.00 0.00 0.00 53 1017.7
20260902143705 74 254 0.0 12.0 0.00 0.00 0.00 52 1017.7
20260902143510 74 260 2.0 11.0 0.00 0.00 0.00 53 1016.8
20260902143204 74 277 0.0 8.0 0.00 0.00 0.00 54 1017.7
20260902142705 73 246 2.0 10.0 0.00 0.00 0.00 55 1017.6
20260902142204 74 252 0.0 2.0 0.00 0.00 0.00 53 1017.5
20260902141705 74 264 2.0 9.0 0.00 0.00 0.00 52 1017.6
20260902141510 74 289 1.0 9.0 0.00 0.00 0.00 53 1016.7
20260902141204 74 260 1.0 7.0 0.00 0.00 0.00 53 1017.6
20260902140704 74 228 1.0 7.0 0.00 0.00 0.00 53 1017.5
20260902140510 74 237 0.0 7.0 0.00 0.00 0.00 55 1016.7
20260902140204 73 231 0.0 2.0 0.00 0.00 0.00 53 1017.6
20260902135510 73 267 0.0 10.0 0.00 0.00 0.00 53 1016.8
20260902134705 74 230 0.0 2.0 0.00 0.00 0.00 52 1017.7
20260902134510 74 210 0.0 3.0 0.00 0.00 0.00 52 1016.8
20260902133704 73 224 0.0 6.0 0.00 0.00 0.00 53 1017.7
20260902133510 73 248 1.0 6.0 0.00 0.00 0.00 53 1016.8
20260902133205 74 226 0.0 3.0 0.00 0.00 0.00 52 1017.8
20260902132705 74 273 1.0 8.0 0.00 0.00 0.00 52 1017.7
20260902132510 74 224 1.0 10.0 0.00 0.00 0.00 52 1016.9
20260902132204 74 292 2.0 8.0 0.00 0.00 0.00 51 1017.8
20260902131704 74 242 1.0 9.0 0.00 0.00 0.00 50 1017.8
20260902131510 74 254 1.0 10.0 0.00 0.00 0.00 49 1016.9
20260902131204 74 283 2.0 9.0 0.00 0.00 0.00 48 1017.8